International Virtual Aviation Organisation

Russian Federation and Kazakhstan MCD

 

Карточка аэропорта USCC

Внимание!
Информация на этой странице в стадии наполнения.
Если вы не увидели какой-то информации, или заметили неточность - пожалуйста сообщите нам!
Спасибо!
Команда RU-STAFF
Название аэропортаБаландино
Название аэропорта (англ.)Balandino
Превышение769 ft. (234.4 m.)
Координаты55°18.348', 61°30.198'
Высота перехода1500m (5700ft)
Эшелон переходаFL080
Коды ответчика5560-5563
Зона ОрВДЕкатеринбург РПИ (USSV)
Данные METARUSCC 131000Z 25005MPS CAVOK M06/M10 Q1021 R27/350045 NOSIG RMK QFE745
Проноз погоды (TAF)USCC 130800Z 1309/1409 27003G08MPS 9999 SCT030 TEMPO 1315/1406 5000 BR SCT011
NOTAMshow/hide NOTAM
AWOS   TABLE

Информация о ВПП


Диспетчерские позиции

Позывной Наименование органа УВД Частота
USCC_APPЧелябинск-Подход124.7
USCC_TWRЧелябинск-Старт125.2



Спутниковое изображение